Regional Weather Roundup
Issued by NWS

Home | Current Version | Previous Version | Graphics & Text | Print | Product List | Glossary On
Versions: 1 2 3 4 5 6 7 8 9 10 11 12 13 14 15 16 17 18 19 20 21 22 23 24 25 26 27 28 29 30 31 32 33 34 35 36 37 38 39 40 41 42 43 44 45 46 47 48 49 50
411
ASUS43 KFSD 220110
RWRSD

WEATHER ROUNDUP FOR SOUTH DAKOTA
NATIONAL WEATHER SERVICE SIOUX FALLS SD
800 PM CDT THU MAY 21 2015

NOTE: "FAIR" INDICATES FEW OR NO CLOUDS BELOW 12,000 FEET WITH NO
SIGNIFICANT WEATHER AND/OR OBSTRUCTIONS TO VISIBILITY.


SDZ001>005-009-010-012>017-220200-
NORTHWEST AND NORTH CENTRAL SOUTH DAKOTA

CITY           SKY/WX    TMP DP  RH WIND       PRES   REMARKS
BUFFALO          N/A     63  28  26 SE17      30.04F
FAITH            N/A     65  29  25 SE14      30.12F
MOBRIDGE       SUNNY     72  35  25 S5        30.08F
$$

SDZ012>016-024>037-041>051-057-063-072>074-220200-
SOUTHWEST AND SOUTH CENTRAL SOUTH DAKOTA

CITY           SKY/WX    TMP DP  RH WIND       PRES   REMARKS
RAPID CTY ARPT CLOUDY    60  39  45 S12       30.12F
PIERRE         SUNNY     68  37  32 SE6       30.11F
CUSTER         CLOUDY    48  37  65 S7        30.16F
ELLSWORTH AFB  PTSUNNY   62  39  42 S14       30.11
PHILIP         SUNNY     65  32  29 SE10      30.12F
PINE RIDGE     CLOUDY    58  41  53 SE7       30.14F
SPEARFISH      FAIR      59  37  44 SE16      30.10R
WINNER         FAIR      68  31  25 S8        30.15S
$$

SDZ004>011-016>023-039-040-220200-
NORTHEAST SOUTH DAKOTA

CITY           SKY/WX    TMP DP  RH WIND       PRES   REMARKS
ABERDEEN       CLEAR     72  39  30 N5        30.09S
WATERTOWN      CLEAR     66  39  37 N9        30.10S
BROOKINGS      CLEAR     70  36  28 N8        30.11S
SISSETON         N/A     68  28  22 NE13      30.09R
$$

SDZ017-020-022-023-036>040-048>070-220200-
SOUTHEAST SOUTH DAKOTA

CITY           SKY/WX    TMP DP  RH WIND       PRES   REMARKS
SIOUX FALLS    PTCLDY    67  38  34 NW8       30.10S
HURON          PTCLDY    69  42  37 NW8       30.09S
CHAMBERLAIN    CLEAR     65  38  36 S8        30.14S
MITCHELL       CLEAR     71  36  27 W7        30.12S
YANKTON        CLEAR     68  37  32 SW10      30.12S
$$

ABBREVIATIONS USED IN REMARKS
   TC - TEMPERATURE IN CELSIUS
  WCI - WIND CHILL INDEX
   HX - HEAT INDEX
  VSB - VISIBILITY




USA.gov is the U.S. government's official web portal to all federal, state and local government web resources and services.